Temp
9 9 9 9 9 9 10 10 10 10 9 9 10 9 9 9 8 8 8 8 8 8 7 6 6 5 5 5 4 4 4 3 1 2 2 2 2 2 1 1 -0 -1 -1 -1
9 9 9 9 9 9 10 10 9 9 9 10 9 9 9 8 8 8 8 7 7 7 7 6 6 6 5 5 4 3 3 3 2 2 1 1 1 1 0 -1 -1 -1 -2 -2
9 8 8 8 8 9 9 9 9 9 9 10 9 8 8 7 7 7 6 6 6 6 6 6 6 5 4 4 3 3 2 2 2 2 1 1 1 0 -0 -1 -1 -1 -1 -1
8 8 7 8 8 8 8 8 9 9 8 9 9 7 8 7 6 6 5 4 5 6 6 6 6 4 3 2 2 2 2 2 1 1 0 0 -0 -1 -1 -1 -1 -1 -2 -2
7 7 7 8 8 8 7 8 8 8 8 8 9 9 6 6 5 5 5 4 4 3 3 3 3 2 2 2 2 2 2 1 1 1 0 -0 -0 -0 -1 -1 -2 -2 -2 -3
7 7 7 7 7 7 7 8 8 8 8 7 9 9 6 5 4 4 3 3 3 3 1 1 1 2 2 1 1 1 0 -0 -0 -0 -0 -0 -0 -1 -2 -2 -2 -3 -4 -5
7 6 6 6 7 7 7 8 7 5 2 3 8 7 5 5 5 4 3 2 2 2 1 1 1 -0 -0 -0 -0 1 1 1 -0 -1 -1 -2 -2 -3 -4 -4 -5 -5 -6 -6
7 6 6 6 7 7 7 7 6 4 -1 4 8 6 4 5 4 3 3 3 2 1 1 0 -0 -1 -1 -2 -2 -0 -0 -1 -1 -2 -2 -3 -3 -4 -5 -4 -5 -6 -6 -6
7 5 6 7 7 7 6 7 6 6 5 5 6 4 4 4 3 3 2 2 2 1 1 1 0 0 -1 -1 -2 -1 -2 -2 -3 -3 -4 -4 -5 -5 -5 -5 -6 -6 -6 -7
6 5 6 6 6 6 6 6 6 6 2 1 5 5 5 4 3 3 2 2 2 1 0 0 0 1 -1 -1 -1 -2 -2 -3 -3 -3 -4 -5 -5 -4 -5 -6 -6 -7 -8 -8
6 6 5 6 6 6 5 6 6 5 5 1 -2 4 4 3 3 2 2 2 1 1 0 0 -0 -0 -1 -1 -2 -2 -3 -3 -3 -4 -6 -6 -6 -6 -6 -7 -8 -8 -9 -10
6 6 5 5 5 6 5 5 5 5 3 4 3 4 4 4 3 1 1 1 0 0 0 0 -0 -1 -1 -2 -2 -3 -3 -3 -3 -4 -6 -6 -7 -8 -9 -9 -9 -9 -10 -10
6 5 5 5 4 4 5 4 4 4 3 3 2 3 4 3 3 2 -0 -0 1 0 -0 -1 -1 -2 -2 -3 -3 -3 -3 -4 -6 -7 -8 -8 -9 -9 -9 -10 -10 -10 -11 -12
6 5 5 4 4 4 4 4 4 4 3 4 3 3 3 2 1 0 -0 -0 -0 -0 -1 -1 -2 -3 -3 -4 -3 -4 -6 -7 -8 -8 -9 -9 -9 -9 -9 -9 -11 -10 -12 -13
6 5 4 4 4 4 3 3 3 4 4 4 4 3 2 2 1 0 0 -0 -1 -1 -1 -2 -3 -3 -4 -4 -5 -7 -7 -7 -8 -9 -10 -10 -10 -10 -10 -11 -11 -11 -12 -13
5 4 4 4 3 3 3 3 3 3 3 3 3 3 1 1 0 0 0 -0 -1 -1 -1 -3 -3 -4 -4 -6 -7 -8 -8 -8 -9 -10 -10 -10 -11 -11 -11 -11 -11 -12 -12 -13
4 4 4 3 3 3 3 3 3 3 3 2 2 2 -0 0 0 -0 -0 -1 -1 -1 -2 -4 -4 -4 -6 -8 -9 -9 -9 -9 -10 -10 -10 -11 -11 -11 -12 -12 -13 -14 -14 -14
4 4 3 3 3 -2 3 2 2 2 2 2 1 1 1 1 0 -1 -1 -2 -2 -3 -4 -5 -6 -8 -9 -9 -9 -9 -9 -10 -10 -10 -11 -12 -12 -12 -12 -13 -13 -14 -14 -14
3 3 2 2 2 3 2 2 2 2 1 1 1 1 0 -1 -1 -2 -2 -3 -4 -5 -5 -7 -8 -9 -9 -9 -9 -10 -10 -11 -11 -11 -12 -12 -13 -12 -13 -14 -14 -14 -15 -15
2 2 2 1 0 -4 1 0 0 0 -0 1 0 -1 -1 -1 -1 -2 -3 -4 -4 -5 -6 -8 -9 -9 -9 -10 -10 -10 -11 -11 -11 -12 -13 -13 -13 -13 -14 -14 -14 -15 -15 -15
1 1 1 -0 -1 1 2 1 1 -1 1 -0 -1 -1 -1 -2 -3 -3 -4 -5 -6 -7 -9 -9 -9 -10 -10 -10 -10 -11 -11 -12 -12 -13 -13 -13 -13 -13 -14 -14 -15 -15 -15 -15
2 2 1 -1 -3 -1 1 -0 -1 -0 -1 -1 -2 -2 -2 -4 -4 -5 -5 -6 -7 -9 -9 -10 -10 -10 -10 -11 -11 -11 -12 -12 -12 -13 -13 -13 -13 -14 -14 -15 -16 -15 -15 -15
1 2 1 1 1 1 -0 -1 -1 -1 -1 -2 -2 -3 -3 -4 -5 -6 -7 -8 -9 -9 -9 -9 -10 -10 -11 -11 -11 -12 -12 -13 -13 -13 -13 -13 -14 -14 -15 -16 -16 -16 -15 -15
1 1 0 -0 -0 -1 -1 -1 -1 -2 -2 -2 -3 -3 -4 -5 -7 -8 -9 -9 -9 -9 -9 -10 -10 -10 -11 -11 -11 -12 -13 -12 -13 -13 -13 -13 -14 -14 -15 -16 -15 -15 -15 -16
1 1 1 1 -0 -1 -1 -1 -1 -2 -3 -3 -4 -5 -5 -7 -8 -8 -8 -8 -9 -10 -10 -10 -10 -10 -11 -11 -12 -13 -13 -13 -13 -13 -14 -14 -14 -15 -15 -15 -15 -15 -15 -16
1 0 -1 -1 -1 -1 -1 -2 -3 -3 -4 -4 -4 -6 -7 -8 -7 -7 -8 -9 -10 -9 -9 -10 -10 -11 -12 -12 -12 -13 -13 -13 -13 -14 -14 -15 -15 -15 -15 -15 -15 -16 -16 -16
Height
3152 3154 3154 3155 3155 3155 3155 3154 3153 3158 3161 3163 3164 3166 3166 3166 3166 3167 3167 3167 3167 3168 3169 3169 3169 3171 3171 3173 3170 3170 3170 3165 3165 3165 3166 3165 3162 3159 3157 3153 3151 3150 3145 3139
3153 3152 3153 3154 3154 3154 3154 3154 3156 3158 3159 3160 3163 3164 3163 3164 3165 3166 3166 3166 3166 3167 3167 3168 3170 3170 3170 3172 3171 3167 3168 3169 3166 3163 3161 3160 3159 3156 3153 3149 3144 3139 3134 3130
3149 3151 3151 3152 3151 3153 3153 3154 3155 3156 3157 3159 3161 3164 3161 3163 3163 3163 3163 3164 3164 3164 3166 3169 3169 3169 3168 3169 3170 3168 3167 3165 3163 3161 3157 3155 3152 3148 3145 3141 3136 3132 3128 3123
3150 3151 3151 3152 3150 3152 3152 3154 3155 3156 3157 3157 3158 3163 3161 3160 3160 3161 3161 3161 3162 3165 3167 3169 3170 3168 3166 3165 3164 3164 3164 3162 3159 3155 3151 3147 3144 3141 3137 3132 3128 3124 3120 3114
3152 3150 3150 3150 3152 3152 3152 3153 3153 3154 3154 3156 3155 3158 3163 3160 3162 3162 3163 3165 3166 3165 3164 3165 3166 3166 3165 3164 3161 3159 3158 3155 3152 3148 3143 3140 3137 3134 3130 3125 3121 3114 3107 3100
3150 3151 3151 3151 3151 3152 3153 3153 3153 3153 3154 3155 3155 3155 3161 3159 3160 3162 3162 3163 3163 3163 3163 3161 3160 3161 3162 3161 3157 3154 3151 3148 3144 3140 3137 3134 3130 3125 3121 3116 3109 3103 3096 3092
3150 3151 3151 3151 3151 3152 3152 3151 3151 3155 3155 3156 3153 3155 3161 3161 3163 3162 3161 3162 3163 3162 3160 3157 3154 3154 3154 3152 3149 3147 3146 3144 3138 3132 3127 3122 3118 3113 3107 3101 3096 3091 3086 3083
3148 3152 3152 3151 3151 3152 3152 3152 3153 3158 3163 3157 3154 3159 3164 3162 3162 3163 3164 3162 3161 3160 3160 3158 3156 3152 3151 3147 3144 3141 3140 3137 3132 3128 3121 3116 3110 3104 3098 3092 3087 3081 3076 3072
3149 3152 3153 3152 3152 3154 3154 3154 3156 3157 3158 3157 3159 3164 3164 3163 3162 3162 3162 3161 3159 3157 3156 3155 3150 3147 3145 3143 3141 3138 3134 3128 3122 3119 3115 3109 3102 3095 3089 3082 3075 3071 3067 3061
3149 3153 3154 3154 3154 3155 3155 3157 3157 3158 3161 3163 3159 3160 3161 3162 3162 3162 3162 3160 3159 3156 3153 3151 3148 3146 3143 3140 3137 3135 3131 3126 3120 3114 3108 3102 3096 3085 3079 3071 3069 3064 3058 3051
3149 3152 3155 3155 3155 3155 3157 3157 3158 3159 3160 3161 3164 3162 3160 3160 3161 3159 3159 3157 3155 3153 3151 3150 3147 3143 3140 3137 3134 3129 3123 3117 3111 3105 3099 3094 3088 3079 3071 3067 3062 3056 3051 3045
3149 3151 3153 3155 3155 3156 3156 3157 3157 3158 3161 3161 3161 3162 3161 3158 3156 3156 3155 3153 3152 3151 3149 3147 3144 3141 3135 3130 3126 3120 3114 3108 3101 3094 3088 3083 3076 3068 3062 3056 3049 3045 3041 3033
3148 3151 3153 3155 3158 3156 3156 3156 3156 3158 3159 3160 3161 3160 3158 3155 3154 3150 3149 3148 3147 3146 3143 3141 3137 3132 3126 3121 3117 3111 3105 3097 3091 3084 3078 3072 3066 3060 3053 3046 3039 3033 3030 3024
3148 3149 3150 3152 3154 3154 3154 3155 3155 3154 3154 3155 3155 3155 3153 3148 3150 3148 3147 3144 3141 3138 3137 3134 3129 3122 3116 3110 3106 3100 3094 3088 3083 3077 3070 3064 3058 3051 3042 3036 3030 3023 3018 3016
3146 3147 3149 3150 3151 3151 3151 3151 3151 3151 3151 3150 3151 3149 3147 3145 3144 3145 3142 3139 3136 3135 3131 3126 3119 3113 3107 3101 3095 3090 3085 3081 3075 3069 3062 3055 3048 3041 3034 3028 3022 3013 3010 3007
3144 3146 3147 3147 3147 3148 3147 3146 3146 3146 3147 3147 3146 3144 3142 3140 3138 3136 3136 3134 3131 3127 3122 3117 3112 3105 3098 3092 3087 3081 3077 3072 3066 3059 3053 3045 3039 3033 3027 3020 3011 3007 3002 2998
3143 3144 3144 3144 3144 3144 3145 3144 3143 3144 3144 3143 3141 3139 3135 3134 3132 3131 3129 3127 3124 3121 3115 3109 3104 3097 3090 3084 3078 3074 3068 3063 3057 3050 3042 3035 3030 3024 3018 3013 3005 3001 2996 2991
3141 3142 3142 3141 3142 3143 3140 3140 3140 3140 3139 3139 3135 3133 3132 3132 3127 3124 3123 3121 3117 3112 3107 3102 3094 3088 3083 3078 3073 3067 3062 3056 3048 3041 3034 3027 3020 3015 3010 3004 2999 2995 2991 2986
3139 3140 3139 3140 3140 3139 3137 3136 3136 3136 3136 3134 3131 3130 3128 3127 3125 3120 3116 3113 3108 3104 3098 3092 3087 3083 3077 3072 3067 3060 3054 3047 3039 3032 3025 3018 3011 3005 3000 2996 2993 2989 2985 2980
3137 3137 3138 3137 3137 3135 3132 3131 3131 3131 3130 3127 3127 3126 3123 3121 3118 3116 3111 3105 3101 3096 3091 3086 3082 3077 3070 3064 3058 3051 3045 3038 3031 3024 3017 3010 3004 2998 2993 2990 2986 2982 2978 2975
3133 3134 3133 3132 3132 3129 3128 3127 3128 3128 3128 3123 3122 3120 3116 3114 3110 3106 3101 3098 3094 3089 3084 3081 3075 3069 3062 3057 3050 3042 3036 3029 3022 3015 3009 3003 2997 2992 2988 2984 2981 2978 2974 2969
3129 3130 3128 3128 3129 3123 3121 3122 3123 3121 3117 3116 3115 3111 3107 3104 3101 3098 3095 3091 3087 3082 3078 3073 3067 3061 3056 3048 3042 3035 3028 3022 3015 3008 3001 2996 2991 2986 2982 2979 2976 2972 2968 2964
3125 3124 3123 3123 3120 3117 3115 3114 3113 3112 3111 3108 3106 3103 3099 3096 3092 3090 3087 3083 3079 3075 3071 3066 3060 3053 3047 3040 3034 3025 3019 3013 3007 3000 2994 2989 2984 2980 2976 2974 2970 2967 2963 2958
3117 3118 3116 3115 3113 3113 3109 3107 3107 3106 3105 3101 3098 3095 3092 3088 3085 3083 3079 3075 3071 3068 3063 3057 3051 3045 3038 3032 3024 3016 3010 3004 2998 2993 2987 2982 2978 2974 2971 2968 2965 2961 2958 2954
3114 3112 3112 3108 3108 3108 3105 3102 3100 3098 3095 3091 3088 3087 3084 3081 3079 3075 3072 3069 3065 3060 3054 3048 3042 3036 3029 3022 3016 3008 3001 2996 2991 2986 2981 2976 2972 2969 2966 2963 2960 2957 2953 2948
3106 3105 3105 3100 3100 3099 3097 3096 3093 3090 3087 3084 3083 3080 3078 3074 3072 3069 3067 3062 3057 3051 3045 3039 3033 3026 3019 3012 3006 2999 2993 2987 2983 2979 2975 2971 2968 2965 2961 2959 2955 2952 2948 2944
Wind_Speed
2 8 10 8 6 2 1 10 19 18 13 8 5 12 10 11 9 11 15 11 18 22 21 22 21 16 15 17 23 28 24 19 16 27 20 24 28 32 38 42 34 31 34 40
5 7 7 3 2 2 2 6 13 9 4 2 5 11 10 9 10 11 9 10 14 20 20 21 22 22 22 23 21 21 24 22 25 28 27 29 30 34 38 32 38 42 44 51
5 5 4 8 2 7 5 4 2 1 2 3 4 18 17 14 16 15 15 13 14 17 21 22 23 22 19 12 11 12 14 17 21 25 29 33 37 39 38 35 40 46 47 45
3 4 7 5 1 2 1 3 5 7 3 5 5 6 16 18 18 17 16 11 11 19 22 22 17 7 6 8 13 15 16 18 23 27 32 34 34 35 37 43 49 46 48 48
6 6 6 5 3 3 1 6 5 5 7 7 3 3 19 17 14 14 15 8 11 11 14 16 15 12 14 17 20 22 25 24 28 29 32 33 37 42 44 45 47 52 50 46
3 1 1 3 6 9 7 6 5 5 5 3 7 5 19 16 17 12 9 8 7 9 10 13 14 15 15 18 21 20 20 24 28 32 35 36 36 38 43 48 51 50 46 45
11 4 8 5 4 3 4 7 2 1 1 3 4 8 7 11 17 13 9 7 8 9 12 18 21 21 21 18 21 27 26 32 34 37 38 40 44 44 52 52 45 44 47 47
8 3 1 6 7 3 10 7 5 1 1 5 6 9 13 17 20 14 5 6 4 10 13 10 13 15 18 18 22 37 39 37 38 40 46 47 48 48 51 55 46 43 47 47
10 5 4 4 7 4 5 8 7 4 4 3 8 15 8 2 3 5 8 6 6 9 14 17 16 20 8 17 26 35 39 41 45 45 46 46 48 48 54 57 48 52 51 46
9 6 3 10 10 11 9 8 4 3 2 2 4 5 4 13 10 5 6 3 6 4 8 11 20 23 24 25 33 36 41 42 42 48 45 44 47 49 55 53 52 50 45 46
12 6 7 6 5 6 5 1 2 1 1 4 1 5 5 9 9 4 6 7 8 8 13 19 19 25 30 29 32 39 40 42 43 46 44 41 43 50 48 41 44 48 46 47
8 10 10 4 6 3 3 1 0 0 2 2 1 5 5 7 6 3 8 12 9 13 19 23 26 28 32 39 38 37 42 45 44 42 40 39 42 46 34 45 52 58 45 44
10 7 7 3 1 2 4 2 4 5 4 2 3 4 2 15 20 21 10 12 16 20 25 27 27 39 42 38 42 45 45 41 36 38 40 41 41 41 38 47 54 54 42 38
8 8 5 5 2 4 6 7 8 10 10 11 14 16 13 13 5 8 10 15 21 26 24 31 37 39 38 44 47 45 37 36 36 37 40 42 42 43 46 55 53 46 36 44
7 8 5 4 6 7 9 10 10 12 14 15 18 16 15 13 10 12 15 19 21 23 36 39 42 41 43 47 44 37 39 38 37 39 38 43 42 42 47 51 57 33 38 42
5 5 2 2 5 6 12 11 12 15 15 16 15 9 6 13 17 22 22 25 26 34 46 39 36 43 44 41 38 41 45 43 44 45 42 37 41 44 47 51 44 31 29 34
4 1 1 2 5 4 5 3 1 4 8 10 12 12 14 17 23 24 22 28 36 44 41 39 42 43 38 36 40 44 45 46 47 47 42 36 37 40 42 46 27 29 31 33
4 2 1 2 1 1 7 6 10 14 11 12 9 14 22 25 26 25 29 37 41 39 37 39 33 29 31 35 42 45 46 47 47 44 41 36 38 41 44 37 30 27 30 31
7 4 2 3 2 9 7 7 11 10 11 17 23 26 26 20 21 33 39 38 35 33 35 28 27 30 37 44 44 45 47 48 45 44 38 33 36 37 36 32 25 27 28 30
7 7 5 6 4 6 11 3 11 14 16 20 20 21 24 28 36 39 33 35 36 36 35 31 33 36 43 42 45 49 51 47 47 44 40 37 35 34 30 29 29 25 29 32
12 10 13 11 7 8 10 14 14 11 16 20 22 24 30 37 34 33 34 31 33 32 28 30 33 41 42 46 47 52 49 48 47 42 39 36 32 28 23 24 25 27 29 34
11 7 9 8 7 9 6 13 16 22 30 26 29 34 33 32 36 35 28 31 28 24 29 33 39 43 46 46 51 51 48 46 42 39 39 34 29 26 24 24 26 28 32 30
14 16 12 13 10 19 20 20 29 31 31 30 31 33 35 34 30 24 29 23 23 29 34 40 43 45 45 48 50 47 47 45 42 38 35 31 27 25 23 25 26 27 27 26
15 17 20 17 17 15 23 28 29 31 33 33 31 36 31 25 19 26 23 26 32 36 38 40 42 43 44 44 45 44 44 44 39 35 31 28 27 24 20 19 22 24 23 23
22 23 27 31 26 24 29 33 34 33 35 32 34 30 24 18 23 29 30 34 36 37 39 40 41 43 43 44 42 41 43 41 35 31 28 26 23 19 19 22 21 22 23 24
26 27 28 33 33 30 31 30 31 34 35 35 36 26 20 26 31 31 32 34 37 39 40 42 42 42 42 42 42 41 41 38 34 28 26 24 20 20 22 21 21 22 22 23
Wind_Direction
111 247 187 174 156 144 310 6 134 147 160 164 212 146 152 129 142 133 133 158 184 190 193 206 214 222 220 242 251 253 274 296 273 286 296 303 307 300 303 300 295 292 300 296
205 203 188 191 5 198 257 333 95 102 38 269 124 173 178 169 145 156 192 195 184 190 205 214 219 234 246 262 259 268 282 280 286 295 300 309 301 293 290 279 291 302 305 305
212 166 87 127 287 128 175 227 198 172 162 169 204 146 150 152 137 154 165 196 206 218 225 226 236 257 278 273 261 269 275 286 297 301 302 295 285 285 291 295 295 297 304 308
65 86 101 78 323 67 139 213 277 274 303 266 242 101 160 157 163 157 156 173 214 237 245 250 267 281 243 256 269 281 295 302 296 290 291 287 291 292 293 296 300 305 309 306
110 142 127 199 261 280 338 322 313 275 229 271 219 203 149 158 142 169 198 204 260 254 268 285 294 274 275 285 291 299 300 294 294 288 286 288 293 298 303 308 306 306 310 310
139 27 247 274 95 68 46 351 319 312 269 267 308 182 150 165 175 171 201 249 264 284 301 311 292 288 300 304 305 304 303 306 300 300 302 305 312 313 311 309 307 306 307 307
104 61 46 66 122 63 17 30 10 311 343 208 6 48 152 181 200 202 178 200 263 302 332 335 328 327 317 314 322 323 321 325 321 324 325 319 320 316 316 315 309 307 308 306
157 109 63 26 119 80 36 21 73 79 45 315 339 114 119 161 156 157 169 302 302 341 328 324 315 304 319 327 317 322 324 322 317 317 320 318 316 310 308 310 299 306 305 305
116 75 50 36 91 78 45 59 72 69 26 318 103 108 108 59 95 15 34 72 337 315 322 316 297 299 316 309 309 314 320 311 319 317 312 309 306 297 303 299 306 312 309 308
108 111 127 90 67 67 71 88 93 62 89 328 136 138 181 167 161 134 137 329 295 314 312 297 291 306 304 296 306 311 313 309 303 305 306 304 302 292 296 310 309 307 308 308
152 134 119 96 95 99 99 72 79 347 95 145 346 52 120 162 153 198 253 250 252 263 277 286 294 298 292 290 300 306 304 303 304 301 296 299 294 297 298 305 315 311 307 310
138 129 97 101 27 88 38 323 265 235 41 93 86 279 213 208 203 270 282 276 274 270 272 281 287 294 292 290 295 310 309 307 305 306 311 315 316 312 298 314 319 314 306 309
137 133 132 130 71 12 98 139 302 267 279 248 189 250 276 288 287 282 269 272 274 280 284 291 298 309 305 301 299 311 312 312 316 317 316 318 322 316 306 312 312 306 305 321
155 145 141 149 178 265 278 278 288 273 238 262 245 279 299 277 266 209 240 266 279 292 298 298 302 310 302 305 312 317 320 321 320 319 319 314 309 306 303 303 313 295 306 326
177 175 169 215 264 268 268 270 265 265 275 267 287 277 242 275 270 245 256 266 279 299 314 308 306 305 308 314 317 321 321 323 324 322 314 307 312 307 305 307 309 307 311 320
170 166 217 200 211 268 285 278 267 257 265 270 272 282 250 268 257 261 264 275 290 310 314 312 307 311 313 315 319 318 324 329 327 324 316 300 292 300 303 303 298 311 320 321
195 209 316 196 299 320 145 120 146 274 231 308 290 271 244 257 267 277 287 303 309 307 311 308 309 309 313 315 316 318 322 325 325 322 323 314 294 292 301 310 321 334 323 317
235 207 263 247 344 50 179 253 265 248 265 244 248 247 258 267 281 293 303 308 311 313 310 310 313 310 308 308 312 317 321 324 322 325 327 320 306 298 300 310 324 328 314 310
202 213 250 224 253 278 260 239 270 252 265 258 266 274 277 276 285 301 311 311 312 311 316 318 311 308 308 311 315 320 321 321 322 328 329 321 312 315 310 308 328 319 313 321
206 223 241 219 221 215 180 216 270 283 274 277 283 277 273 281 289 299 306 312 318 321 319 316 312 306 309 312 316 321 320 323 325 329 330 325 322 315 313 304 321 317 319 316
216 230 242 242 244 255 234 238 281 257 290 301 293 277 284 299 298 304 310 318 323 319 315 306 301 310 312 314 317 318 324 324 324 328 325 325 324 320 315 316 319 313 305 316
233 232 236 217 225 266 255 282 265 294 303 301 300 299 296 299 300 303 309 320 318 313 304 303 306 309 314 316 315 318 321 321 324 323 323 324 320 311 311 315 310 297 308 316
236 253 268 252 267 285 293 288 295 301 306 297 300 301 302 299 295 300 315 315 303 300 300 303 311 315 314 312 314 316 318 321 322 321 321 321 317 314 308 300 301 304 311 322
245 248 249 262 275 274 278 287 289 292 296 296 293 306 302 292 288 308 301 298 304 308 313 313 310 310 311 311 314 316 317 321 323 319 319 319 318 314 309 308 306 312 318 321
261 253 253 263 263 280 275 282 287 292 294 291 303 303 292 274 292 291 301 311 313 315 311 310 312 313 314 314 316 316 317 319 320 320 320 321 321 315 316 315 318 318 320 327
272 272 268 276 282 280 283 285 288 292 294 295 294 292 278 287 295 306 313 314 313 313 313 313 315 317 316 317 318 316 314 315 317 319 320 320 318 314 317 319 318 318 321 325